Regional Weather Roundup
Issued by NWS

Home | Current Version | Previous Version | Text Only | Print | Product List | Glossary On
Versions: 1 2 3 4 5 6 7 8 9 10 11 12 13 14 15 16 17 18 19 20 21 22 23 24 25 26 27 28 29 30 31 32 33 34 35 36 37 38 39 40 41 42 43 44 45 46 47 48 49 50
000
ASUS42 KFFC 231603
RWRGA
WEATHER ROUNDUP FOR GEORGIA
NATIONAL WEATHER SERVICE PEACHTREE CITY GA
1100 AM EST THU NOV 23 2017

NOTE: "FAIR" INDICATES FEW OR NO CLOUDS BELOW 12,000 FEET WITH NO
SIGNIFICANT WEATHER AND/OR OBSTRUCTIONS TO VISIBILITY.

* = USE WITH CAUTION. THE STATIONS MARKED WITH AN ASTERISK MAY NOT
REPORT WEATHER SUCH AS PRECIPITATION, FOG, OR THUNDER AND ARE NOT
QUALITY CONTROLLED BY NWS.

THE REMARK "TC" DENOTES TEMPERATURE READING IN DEGREES CELSIUS.

GAZ001>058-231700-
NORTH GEORGIA

CITY           SKY/WX    TMP DP  RH WIND       PRES   REMARKS
ATLANTA        MOSUNNY   53  34  48 NE9       30.08F
ATHENS         NOT AVBL
CHAMBLEE       PTSUNNY   52  29  41 E7        30.08F
PEACHTREE CITY SUNNY     56  35  45 VRB6      30.08S
ROME           SUNNY     49  33  54 NE5       30.09F
WEST ATLANTA   PTSUNNY   51  32  48 E9        30.08F
GAINESVILLE    MOSUNNY   50  26  39 E10       30.12S
CARTERSVILLE   SUNNY     50  35  56 VRB5      30.10F


CITY           SKY/WX    TMP DP  RH WIND       PRES   REMARKS
DALTON*        MOSUNNY   45  32  61 CALM      30.12F
LAWRENCEVILLE* MOSUNNY   53  31  42 E9        30.10S
MARIETTA       SUNNY     53  28  39 E9        30.08F
CANTON*        MOSUNNY   54  32  43 E7        30.10F
$$

GAZ059>098-102>109-231700-
CENTRAL GEORGIA

CITY           SKY/WX    TMP DP  RH WIND       PRES   REMARKS
AUGUSTA-BUSH   CLOUDY    52  35  52 NE8       30.10R
AUGUSTA-DANIEL PTSUNNY   53  34  48 NE7       30.10S
COLUMBUS       PTSUNNY   54  43  66 E7        30.04S
MACON          MOSUNNY   57  40  52 E8        30.05F
ROBINS AFB     PTSUNNY   57  41  55 E5        30.04F


CITY           SKY/WX    TMP DP  RH WIND       PRES   REMARKS
LAGRANGE*      MOSUNNY   56  41  57 NE3       30.06F
SYLVANIA*      DRIZZLE   49  46  88 E7        30.08F
MILLEDGEVILLE* MOSUNNY   55  39  54 E6        30.07F
$$

GAZ099>101-110>166-231700-
SOUTH GEORGIA

CITY           SKY/WX    TMP DP  RH WIND       PRES   REMARKS
SAVANNAH       LGT RAIN  49  47  93 NE7       30.06F
VALDOSTA       LGT RAIN  60  59  96 NE10      29.99S
ALMA           CLOUDY    53  50  89 NE7       30.02F
ST SIMONS      LGT RAIN  59  58  96 NE13      30.01F FOG
FT STEWART     RAIN      49  47  92 N6        30.03S
ALBANY         PTSUNNY   63  53  70 VRB6      29.99F
HUNTER AFB     RAIN      50  46  87 NE3       30.02F
MOODY AFB      LGT RAIN  59  58  98 NE9       29.98F
BRUNSWICK      LGT RAIN  55  54  94 NE5       30.04R


CITY           SKY/WX    TMP DP  RH WIND       PRES   REMARKS
BAINBRIDGE*    CLOUDY    64  55  72 E8        30.00S
MOULTRIE*      LGT RAIN  59  57  94 NE5       30.01F
VIDALIA*       CLOUDY    52  46  82 NE5       30.06S
WAYCROSS*      DRIZZLE   54  51  90 NE7       30.02F
DOUGLAS*       LGT RAIN  52  50  93 E10       30.03F
$$



USA.gov is the U.S. government's official web portal to all federal, state and local government web resources and services.